Theta_e
312 315 317 324 327 329 332 333 332 333 336 336 336 337 338 348 353 361 346 351 350 340 339 343 344 341 340 341 339 343 346 345 342 340 337 330 325 322 320 323 323 323 324 328 331 332 329 328 333
312 316 323 325 329 332 333 333 334 334 335 335 335 335 336 355 355 350 354 352 351 338 338 342 342 339 338 335 335 340 344 345 342 341 337 329 326 321 322 326 328 331 332 331 329 329 330 328 327
311 322 323 326 330 332 333 334 335 335 335 334 334 334 336 355 353 355 354 352 355 339 339 341 341 339 337 335 335 339 343 343 343 342 336 329 327 321 323 326 328 332 332 332 332 331 330 327 324
315 321 322 324 328 330 331 333 334 336 335 334 334 335 337 343 357 360 353 356 356 343 342 342 340 338 336 335 335 338 341 342 342 337 331 326 325 322 324 326 328 329 330 330 329 325 324 323 323
318 319 320 321 323 327 330 331 332 334 336 335 334 334 339 345 354 360 354 357 358 356 351 342 340 339 336 335 334 336 338 340 337 333 329 327 326 323 325 326 325 324 326 325 323 322 322 322 323
319 318 318 320 322 324 327 329 331 333 334 335 334 333 339 345 354 357 354 357 357 355 352 342 341 339 335 334 333 333 333 332 330 328 327 326 327 323 327 325 323 322 323 323 324 324 323 322 322
321 318 318 319 320 322 324 326 329 331 334 335 335 334 336 344 353 355 354 356 355 355 354 341 341 338 334 334 332 331 330 328 326 325 325 325 326 323 326 325 323 322 323 325 325 324 324 324 324
322 321 318 319 320 321 324 325 326 327 330 333 334 335 334 346 349 355 354 356 355 355 356 340 341 338 334 333 331 331 330 328 325 323 324 326 325 323 326 326 325 323 323 325 325 325 326 326 331
323 322 322 320 320 321 323 324 325 326 327 331 333 334 340 347 348 355 354 355 355 356 354 342 341 338 333 333 332 332 332 330 326 323 324 324 323 323 324 326 326 325 323 324 326 327 327 329 333
326 325 323 322 323 322 323 324 324 325 325 325 328 330 336 346 345 350 355 355 355 355 354 350 344 338 336 336 333 334 335 333 329 326 323 322 322 323 322 326 325 326 326 324 324 325 327 328 329
325 326 324 324 324 324 325 324 324 324 323 323 324 325 329 340 343 345 350 354 354 354 354 350 348 342 342 343 337 335 336 336 333 331 328 324 329 340 335 340 335 329 325 326 327 326 325 324 323
323 324 324 324 324 325 326 326 325 323 322 322 322 323 324 331 333 341 345 350 354 354 354 351 349 345 343 344 344 336 339 337 337 336 335 327 337 341 341 340 341 343 340 331 334 334 340 340 340
320 321 322 323 323 323 323 325 325 324 322 322 322 322 322 326 330 338 342 345 355 354 354 352 351 346 345 346 346 344 346 346 345 345 344 339 339 344 345 342 342 344 342 341 342 340 342 341 341
322 322 322 323 323 323 323 323 324 323 323 322 321 322 322 323 328 333 340 344 346 355 355 353 353 350 345 351 347 346 347 348 348 348 348 347 345 347 347 345 343 342 343 342 343 343 341 341 340
321 323 323 324 323 324 323 323 324 323 322 323 322 321 321 323 323 326 333 341 345 356 351 338 354 354 346 349 349 346 347 349 348 349 349 350 348 349 348 348 347 345 344 343 342 341 340 341 340
322 323 324 323 324 323 323 323 323 322 322 323 323 322 321 321 322 322 323 333 343 357 345 350 355 355 349 350 353 349 351 350 351 347 349 348 349 345 348 346 349 347 345 345 344 342 341 341 340
321 323 324 323 323 323 323 324 323 322 322 322 323 322 321 321 320 320 322 326 342 349 359 357 357 358 355 350 353 352 351 351 351 350 348 348 350 347 345 348 344 346 346 344 345 345 344 344 342
321 321 321 322 322 323 323 323 323 323 322 323 323 322 322 322 321 320 322 323 344 349 358 358 358 357 356 353 352 353 352 354 352 349 350 349 350 349 346 345 348 345 345 344 345 344 344 341 341
321 321 321 321 324 323 325 323 323 324 323 323 323 323 323 323 322 320 321 324 345 350 354 356 355 355 356 354 353 355 353 352 352 353 351 351 349 349 346 345 344 344 343 344 343 343 341 341 338
321 321 322 322 323 325 326 325 324 324 324 323 323 323 323 323 323 321 322 323 349 356 357 356 356 355 357 355 353 353 350 351 351 350 350 350 349 345 345 343 342 343 344 342 341 340 339 338 331
320 321 322 322 324 325 326 326 325 324 324 323 323 323 323 323 324 324 321 327 356 355 351 351 351 354 357 355 352 351 351 351 350 349 348 348 350 349 347 342 344 345 343 342 339 339 335 328 329
317 319 321 322 324 325 325 326 327 324 326 326 325 323 323 324 324 324 324 332 354 355 350 335 332 351 354 354 353 352 351 351 349 348 348 349 346 344 346 344 342 342 341 341 337 336 330 329 330
316 319 320 321 323 325 325 324 325 326 326 326 326 324 323 323 324 323 327 335 344 347 356 352 351 351 353 352 352 351 350 349 348 348 346 343 341 343 343 343 341 340 339 339 332 328 329 333 333
316 317 319 321 323 325 325 325 325 325 326 327 327 324 323 323 323 322 327 328 332 340 348 350 351 353 354 353 351 350 349 348 348 346 344 342 342 341 341 341 340 339 339 339 337 336 336 336 334
318 317 319 322 323 323 324 325 325 326 326 327 327 326 324 323 323 323 326 327 331 338 348 348 353 355 350 348 349 348 349 346 344 343 343 343 344 339 341 340 339 338 338 338 338 337 335 336 336
318 319 320 326 326 322 323 326 325 326 327 327 326 325 324 324 323 324 323 327 326 332 346 347 354 350 347 346 347 351 349 346 345 344 344 343 340 340 338 338 335 336 336 335 335 335 335 334 334
316 318 319 321 323 323 324 324 323 325 327 328 328 326 325 324 323 324 323 325 334 349 347 348 347 344 344 344 345 345 344 345 343 343 341 340 337 331 331 332 330 332 333 333 331 330 330 329 328
317 318 322 324 325 324 324 324 323 325 327 328 336 331 326 324 324 324 333 345 346 346 344 344 343 341 343 342 344 343 343 342 339 336 334 331 331 330 330 330 329 329 329 328 328 327 325 324 325
319 317 320 323 324 328 325 325 325 327 329 334 337 336 340 338 339 341 342 342 342 340 341 340 340 340 339 340 339 337 336 334 332 331 329 329 329 328 327 326 323 322 320 320 319 317 316 317 317
318 319 322 323 324 326 326 332 336 330 335 336 333 334 337 339 339 339 339 338 338 338 337 337 337 336 335 332 331 330 328 327 326 325 324 323 321 319 318 315 315 315 316 316 314 313 314 314 314
Wind_Speed
13 12 7 10 8 8 17 20 22 24 4 3 9 9 14 15 14 5 15 11 20 19 29 26 21 19 18 18 17 16 15 14 13 11 9 7 7 10 12 12 11 10 9 9 8 8 6 5 6
10 8 12 11 11 14 16 22 24 21 6 8 6 9 12 18 23 26 27 23 21 22 29 27 22 20 18 17 16 16 15 14 13 11 8 7 8 10 12 11 9 7 7 7 8 7 5 4 5
9 15 14 7 15 18 19 23 20 23 17 11 5 2 11 15 22 20 24 24 24 24 29 27 24 21 19 17 16 16 16 14 12 10 7 6 8 10 11 10 8 6 6 7 7 6 5 5 6
7 12 14 15 23 27 29 24 28 17 14 13 8 6 5 11 8 13 22 23 21 22 28 27 25 22 19 18 17 17 16 15 12 10 7 6 7 9 9 7 6 6 6 6 6 6 6 7 7
16 15 11 18 27 29 25 32 36 26 10 12 12 10 8 12 13 15 22 22 20 22 23 27 25 23 20 18 17 17 15 13 12 10 8 7 8 9 9 6 5 5 5 5 5 6 7 8 9
16 23 15 19 24 28 28 36 34 25 28 15 14 13 4 14 15 16 22 22 20 22 22 27 26 23 21 19 17 16 15 13 11 9 8 8 9 10 9 6 4 5 5 5 5 6 7 8 9
19 15 20 24 23 26 26 35 27 25 21 15 15 11 14 16 18 18 21 21 21 22 19 28 28 25 22 20 18 17 14 12 10 9 8 9 10 10 8 6 5 5 6 6 6 6 7 8 10
28 16 26 24 21 26 24 32 34 34 30 14 17 8 10 24 18 19 21 21 21 21 16 29 28 26 24 22 20 17 15 12 10 9 9 9 10 10 9 8 7 7 7 7 7 7 8 9 10
28 17 20 30 28 22 28 24 28 32 35 22 25 18 12 15 15 19 22 23 24 22 18 26 29 27 25 24 22 19 16 13 11 11 10 10 11 11 11 9 9 7 8 8 9 9 10 10 12
23 19 33 25 24 24 24 24 28 17 18 16 22 21 14 18 16 19 22 25 27 26 23 24 27 29 25 22 24 21 18 16 14 13 12 12 10 9 11 9 10 10 11 11 12 12 12 13 14
31 30 23 27 34 32 25 25 33 19 15 18 19 24 22 17 17 19 22 26 28 28 28 30 29 30 28 24 25 24 21 19 17 15 13 13 11 9 10 11 10 12 15 14 14 13 15 16 16
28 34 33 33 32 28 24 27 21 16 16 27 24 26 27 22 21 21 23 25 30 33 33 34 30 29 30 29 20 23 19 19 18 17 15 15 14 13 9 12 12 9 12 11 12 14 10 13 13
34 30 36 38 35 36 30 25 23 22 21 21 18 26 30 22 23 24 24 24 32 35 39 40 33 29 32 27 21 21 17 13 11 10 12 14 14 13 11 13 13 15 10 11 13 10 18 16 13
31 32 32 37 35 31 24 25 19 28 23 20 25 18 23 21 19 21 24 24 28 40 31 44 35 28 35 23 21 23 21 14 13 15 11 8 12 13 13 11 14 16 11 11 13 13 11 17 18
37 28 27 29 32 30 28 24 29 25 26 28 25 24 23 15 19 20 19 27 22 30 42 17 22 26 38 27 23 23 22 19 15 15 18 15 12 14 14 13 11 11 12 15 20 20 19 18 22
25 29 27 28 30 27 25 32 24 30 26 26 25 25 26 24 27 24 26 26 30 19 37 48 39 32 35 35 23 24 19 20 16 14 17 18 17 17 16 18 13 13 14 16 17 17 14 14 14
27 23 35 28 26 25 27 36 22 26 34 27 26 25 26 27 29 32 30 25 31 22 28 32 30 28 31 39 26 25 20 18 16 15 17 18 18 16 20 17 11 13 19 19 16 16 17 22 22
28 31 23 29 28 26 28 25 24 28 28 32 28 31 29 32 36 32 27 28 27 27 26 29 31 26 24 28 26 23 21 22 16 18 18 19 21 20 17 21 17 17 16 19 17 19 24 26 24
27 26 31 25 21 27 25 24 22 24 22 19 28 34 31 33 34 34 32 28 30 31 27 26 22 22 24 25 29 28 24 22 21 13 18 21 22 19 18 19 19 19 23 25 27 27 25 20 17
30 29 28 24 25 24 25 26 22 22 23 21 26 28 31 33 28 27 30 29 31 30 25 23 24 24 26 24 29 29 22 19 18 18 17 19 21 16 13 14 16 19 24 25 25 20 18 18 11
29 28 27 27 24 26 24 25 26 24 21 29 25 26 29 32 34 32 33 31 32 34 30 28 22 22 29 24 27 19 19 16 16 13 12 13 10 11 14 16 18 21 23 23 18 16 14 12 9
27 30 29 26 24 16 25 16 18 19 21 22 26 28 27 29 34 33 34 33 26 18 21 27 39 36 31 24 27 24 23 19 14 15 12 11 15 14 12 14 17 16 15 15 16 13 14 15 17
27 26 27 29 23 21 19 14 17 20 23 25 23 27 28 30 30 30 36 35 28 22 25 30 32 30 24 24 27 23 18 15 12 13 12 8 10 10 10 11 12 13 13 14 10 9 16 17 19
26 26 22 25 18 16 21 18 18 17 25 21 21 30 28 29 27 29 36 36 29 25 27 24 24 23 23 24 24 22 19 17 17 13 8 9 9 7 10 9 9 9 8 9 12 13 14 15 16
17 22 13 13 15 14 22 20 14 23 25 24 23 29 33 28 31 28 29 38 32 27 30 28 30 27 23 24 24 24 17 15 19 15 9 10 11 7 10 9 7 8 7 8 12 12 12 12 13
22 22 16 12 15 19 24 24 18 21 10 26 31 33 32 32 28 32 34 34 31 31 34 29 25 22 20 22 22 17 22 13 14 15 13 12 9 9 9 9 10 11 12 12 13 12 10 9 15
26 21 23 18 19 17 20 21 18 17 5 7 18 31 32 30 30 28 29 32 30 37 31 28 22 19 18 19 19 16 15 17 14 16 12 12 6 4 7 10 11 12 13 14 15 14 11 14 17
24 21 19 14 17 19 20 24 16 22 14 10 15 15 27 29 27 28 26 38 37 33 30 26 23 23 21 20 23 24 24 22 17 19 15 12 11 7 3 3 4 6 9 11 14 14 13 16 18
19 14 20 18 9 9 15 17 22 23 20 17 17 21 21 26 31 36 37 37 35 30 26 25 23 21 19 20 20 19 18 18 16 15 11 8 6 3 2 3 5 7 9 12 14 16 16 15 19
24 17 24 13 19 12 10 7 21 19 22 24 19 21 23 28 31 33 34 34 33 30 28 29 29 28 27 23 22 20 18 16 14 11 8 4 2 2 5 6 9 8 10 14 15 18 19 19 19
Wind_Direction
243 242 258 272 248 231 250 251 248 267 250 359 17 354 330 24 131 204 120 151 175 176 165 162 164 160 158 159 160 167 172 171 169 164 154 147 144 145 145 144 142 150 164 171 171 165 156 140 147
227 230 237 257 236 245 246 243 256 253 232 129 58 311 283 84 101 143 140 180 187 173 164 164 165 162 160 158 160 168 173 174 172 169 164 157 155 156 153 149 150 161 172 177 182 179 171 165 156
217 195 230 221 235 239 247 250 231 260 119 125 161 232 305 81 116 125 146 160 174 169 165 166 164 163 161 159 159 168 173 174 176 178 175 167 163 164 162 160 167 171 178 179 182 184 188 184 171
208 216 233 247 233 231 244 257 268 269 184 153 198 229 152 96 96 121 137 157 175 168 169 167 165 163 162 161 158 166 173 175 179 184 182 177 170 172 170 173 183 189 198 201 205 205 199 189 181
224 224 225 232 240 246 238 242 262 273 289 163 196 232 141 113 120 130 146 157 152 158 176 168 167 164 165 163 160 165 172 179 185 188 187 181 176 177 178 183 194 203 206 209 207 200 198 191 188
217 228 235 233 238 237 245 254 253 247 262 221 189 203 195 135 135 142 153 159 157 158 180 172 168 168 167 166 164 166 172 179 183 188 189 184 182 183 186 190 198 204 201 202 204 203 201 200 197
235 221 234 244 243 236 240 237 255 265 265 199 222 175 216 163 145 147 157 160 159 168 187 177 172 170 170 169 170 170 174 177 180 186 189 186 186 188 192 197 204 205 204 204 204 206 211 210 207
226 248 248 238 244 248 249 233 236 246 258 239 232 193 224 137 144 151 163 164 162 171 192 176 176 173 174 175 175 174 176 177 179 185 188 189 191 194 199 206 211 212 215 217 218 215 215 219 221
227 239 241 242 240 241 254 261 242 230 238 226 235 243 151 136 152 152 166 170 169 168 182 175 179 178 179 181 179 179 181 181 181 186 190 192 197 201 207 212 217 227 234 233 234 236 236 236 240
226 228 235 242 249 255 254 250 257 243 234 254 225 234 208 152 166 170 175 180 175 171 173 178 183 180 176 184 183 184 186 187 189 194 194 195 200 209 219 228 236 239 239 241 245 248 251 252 257
228 236 238 239 253 260 262 253 252 239 220 235 240 235 220 168 179 189 189 191 184 180 179 183 190 178 169 181 183 188 191 194 197 200 200 201 180 218 201 234 251 257 251 250 253 259 265 268 269
230 235 240 253 254 247 260 269 271 218 219 235 223 231 228 187 198 208 202 202 193 185 185 188 189 175 169 193 187 192 196 200 204 207 210 202 179 207 239 215 261 292 297 253 276 277 295 301 304
228 236 238 242 252 265 273 271 253 269 217 218 233 216 230 199 192 208 217 210 201 193 186 184 187 176 168 196 192 176 188 199 201 213 231 210 185 206 235 205 235 260 289 276 270 269 263 280 280
234 232 241 240 237 245 250 263 233 245 256 230 229 244 220 225 181 214 218 223 219 198 172 177 174 178 171 179 194 170 183 197 187 213 236 241 198 211 233 232 218 229 239 256 261 254 248 260 266
242 245 239 233 236 241 252 255 242 231 236 242 221 230 227 207 203 215 225 228 224 215 213 154 208 192 177 175 189 178 181 197 195 200 222 235 228 209 229 235 248 242 255 249 248 250 250 247 249
243 235 243 229 226 235 229 249 235 237 233 233 226 224 218 225 219 223 220 227 230 186 192 190 180 193 187 183 178 178 176 186 197 197 222 239 244 220 226 234 232 256 246 254 272 282 287 280 273
231 231 226 234 229 220 220 241 237 237 220 230 219 216 221 223 226 225 223 221 225 225 195 179 188 200 199 189 180 174 175 192 201 210 214 235 234 225 231 229 232 250 262 262 268 266 268 258 259
218 223 231 223 226 225 225 237 237 235 245 212 221 209 223 222 223 226 223 214 218 223 203 192 185 202 198 192 184 185 190 189 195 214 219 216 226 241 247 242 234 240 252 254 256 258 256 263 273
234 233 223 237 221 221 226 225 227 232 231 217 213 215 214 232 217 215 220 211 202 212 210 208 204 197 207 190 189 193 185 199 195 211 220 227 233 239 255 242 237 241 252 255 258 256 265 278 285
239 244 245 231 219 235 220 230 217 221 236 222 208 211 219 223 222 215 211 210 201 193 192 193 198 203 210 207 197 203 193 206 206 214 220 238 244 246 245 254 250 250 256 261 260 269 270 276 286
230 234 237 243 227 222 231 222 210 214 231 225 218 227 214 214 218 216 210 206 198 189 187 192 200 209 217 208 191 197 189 204 205 208 215 211 200 228 246 254 257 258 262 268 272 273 268 266 286
232 219 234 237 244 237 209 223 201 200 225 235 221 208 217 207 210 212 198 195 179 163 181 214 199 210 213 206 180 194 191 190 202 199 189 218 236 224 242 259 268 267 270 274 282 268 251 267 287
238 231 215 239 240 249 203 214 226 193 229 219 212 200 211 215 200 204 180 186 193 175 170 181 192 199 207 199 192 192 184 185 180 184 194 231 242 228 228 246 272 274 283 277 269 270 280 283 276
218 236 238 218 234 242 239 199 215 231 211 215 211 195 202 199 205 202 171 178 189 181 173 180 187 196 201 193 180 184 179 187 172 175 190 221 225 234 235 249 255 281 283 271 269 271 274 282 280
250 206 207 217 211 221 234 231 215 207 235 207 207 200 191 201 194 197 179 170 176 182 169 170 186 179 189 176 172 171 181 169 175 182 199 183 211 231 225 234 236 252 267 275 279 280 286 292 286
234 219 211 186 201 202 223 219 213 231 302 200 195 189 184 196 191 189 199 171 171 187 171 178 171 173 178 178 172 170 181 159 174 159 174 182 205 217 221 231 244 245 253 261 260 263 258 271 272
199 232 203 209 203 209 213 223 225 242 84 51 179 172 175 183 193 192 192 178 158 139 157 166 168 153 167 176 174 161 157 171 185 169 171 175 199 235 241 256 265 267 267 268 269 276 272 272 282
237 209 194 224 221 201 204 206 210 220 167 143 65 125 166 176 186 184 155 126 127 132 139 150 157 159 168 169 163 163 167 165 163 161 166 169 174 198 214 245 268 280 285 285 289 291 283 281 283
222 232 200 213 196 229 196 202 207 204 162 117 86 77 70 90 106 113 113 116 129 131 134 136 140 144 148 155 154 148 147 150 155 154 153 155 165 182 253 293 308 308 307 300 292 299 305 294 287
235 182 249 204 201 259 262 150 353 204 125 111 105 98 97 99 105 109 114 116 116 117 120 125 126 130 136 136 142 142 149 141 137 135 134 136 163 256 287 287 287 281 278 283 299 300 303 308 301